GSAT-11

Last updated on Sun Apr 12 2026 00:02:55 GMT+0000 (Coordinated Universal Time)

1 43824U 18100B 26101.47406078 -.00000076 00000+0 00000+0 0 9999 2 43824 0.0562 259.7153 0006736 167.3041 17.3227 1.00272374 26806
UTC large
Height (km)
Speed (km/s)
/
Latitude / Longitude
Inclination (degrees)
Orbital Period (minutes)
Azimuth
Elevation
Range (km)
Doppler Factor

Next 0 passes for location: London (51.5072 / 0.1276)

Sorry there are no passes over London.
GSAT-11